TimeMST,TemperatureF,Dew PointF,Humidity,Sea Level PressureIn,VisibilityMPH,Wind Direction,Wind SpeedMPH,Gust SpeedMPH,PrecipitationIn,Events,Conditions,WindDirDegrees,DateUTC
12:15 AM,21.2,17.6,86,29.69,10.0,East,8.1,-,N/A,,Clear,100,2013-12-18 07:15:00
12:35 AM,21.2,17.6,86,29.69,10.0,SE,6.9,-,N/A,,Clear,130,2013-12-18 07:35:00
12:55 AM,24.8,19.4,80,29.69,10.0,SE,5.8,-,N/A,,Clear,140,2013-12-18 07:55:00
1:15 AM,26.6,21.2,80,29.68,10.0,South,4.6,-,N/A,,Clear,180,2013-12-18 08:15:00
1:35 AM,26.6,21.2,80,29.68,10.0,SSE,5.8,-,N/A,,Clear,150,2013-12-18 08:35:00
1:55 AM,24.8,17.6,74,29.69,10.0,South,4.6,-,N/A,,Clear,170,2013-12-18 08:55:00
2:15 AM,24.8,19.4,80,29.69,10.0,South,4.6,-,N/A,,Clear,190,2013-12-18 09:15:00
2:35 AM,28.4,21.2,74,29.68,10.0,Calm,Calm,-,N/A,,Clear,0,2013-12-18 09:35:00
2:55 AM,26.6,17.6,69,29.68,10.0,WSW,4.6,-,N/A,,Clear,240,2013-12-18 09:55:00
3:15 AM,28.4,26.6,93,29.67,10.0,SW,6.9,-,N/A,,Clear,220,2013-12-18 10:15:00
4:15 AM,24.8,17.6,74,29.66,10.0,Calm,Calm,-,N/A,,Clear,0,2013-12-18 11:15:00
4:35 AM,24.8,21.2,86,29.66,10.0,SE,3.5,-,N/A,,Clear,140,2013-12-18 11:35:00
4:55 AM,24.8,21.2,86,29.65,10.0,SSE,4.6,-,N/A,,Clear,160,2013-12-18 11:55:00
5:15 AM,26.6,21.2,80,29.64,10.0,South,6.9,-,N/A,,Clear,180,2013-12-18 12:15:00
5:55 AM,28.4,24.8,86,29.64,10.0,West,10.4,-,N/A,,Clear,280,2013-12-18 12:55:00
6:15 AM,33.8,23.0,65,29.64,10.0,West,12.7,-,N/A,,Clear,270,2013-12-18 13:15:00
6:35 AM,33.8,23.0,65,29.65,10.0,West,10.4,-,N/A,,Clear,270,2013-12-18 13:35:00
6:55 AM,35.6,24.8,65,29.65,10.0,West,13.8,-,N/A,,Clear,280,2013-12-18 13:55:00
7:15 AM,37.4,24.8,60,29.66,10.0,West,16.1,-,N/A,,Clear,280,2013-12-18 14:15:00
7:35 AM,37.4,24.8,60,29.66,10.0,West,16.1,-,N/A,,Clear,280,2013-12-18 14:35:00
7:55 AM,37.4,24.8,60,29.67,10.0,West,17.3,-,N/A,,Clear,280,2013-12-18 14:55:00
8:15 AM,41.0,26.6,57,29.67,10.0,WNW,21.9,27.6,N/A,,Clear,290,2013-12-18 15:15:00
8:35 AM,39.2,26.6,61,29.68,10.0,NW,19.6,24.2,N/A,,Clear,310,2013-12-18 15:35:00
8:55 AM,39.2,26.6,61,29.69,10.0,WNW,20.7,27.6,N/A,,Clear,300,2013-12-18 15:55:00
9:15 AM,39.2,26.6,61,29.70,10.0,WNW,20.7,-,N/A,,Clear,290,2013-12-18 16:15:00
9:35 AM,39.2,26.6,61,29.71,10.0,West,19.6,25.3,N/A,,Clear,280,2013-12-18 16:35:00
9:55 AM,41.0,26.6,57,29.71,10.0,WNW,20.7,27.6,N/A,,Clear,290,2013-12-18 16:55:00
10:15 AM,41.0,26.6,57,29.71,10.0,WNW,25.3,29.9,N/A,,Clear,300,2013-12-18 17:15:00
10:35 AM,41.0,26.6,57,29.72,10.0,WNW,20.7,32.2,N/A,,Clear,300,2013-12-18 17:35:00
10:55 AM,39.2,26.6,61,29.73,10.0,NW,24.2,33.4,N/A,,Clear,320,2013-12-18 17:55:00
11:15 AM,37.4,28.4,70,29.74,10.0,NW,20.7,31.1,N/A,,Clear,320,2013-12-18 18:15:00
11:35 AM,37.4,26.6,65,29.75,10.0,NNW,19.6,25.3,N/A,,Clear,330,2013-12-18 18:35:00
11:55 AM,35.6,26.6,70,29.76,10.0,NNW,21.9,26.5,N/A,,Clear,330,2013-12-18 18:55:00
12:15 PM,35.6,26.6,70,29.76,10.0,NNW,23.0,27.6,N/A,,Clear,340,2013-12-18 19:15:00
12:36 PM,33.8,26.6,75,29.74,10.0,North,27.6,31.1,N/A,,Clear,350,2013-12-18 19:36:00
12:55 PM,33.8,28.4,81,29.76,10.0,North,19.6,25.3,N/A,,Mostly Cloudy,350,2013-12-18 19:55:00
1:15 PM,33.8,28.4,81,29.76,10.0,North,20.7,25.3,N/A,,Overcast,360,2013-12-18 20:15:00
1:35 PM,33.8,28.4,81,29.77,10.0,North,19.6,24.2,N/A,,Mostly Cloudy,360,2013-12-18 20:35:00
1:55 PM,33.8,28.4,81,29.78,10.0,North,15.0,-,N/A,,Mostly Cloudy,10,2013-12-18 20:55:00
2:15 PM,33.8,28.4,81,29.79,10.0,North,13.8,-,N/A,,Overcast,360,2013-12-18 21:15:00
2:35 PM,32.0,26.6,80,29.81,10.0,North,11.5,-,N/A,,Overcast,360,2013-12-18 21:35:00
2:55 PM,32.0,26.6,80,29.80,10.0,North,15.0,-,N/A,,Overcast,10,2013-12-18 21:55:00
3:15 PM,30.2,26.6,86,29.80,10.0,North,18.4,21.9,N/A,,Overcast,360,2013-12-18 22:15:00
3:35 PM,30.2,24.8,80,29.84,10.0,North,15.0,-,N/A,,Overcast,10,2013-12-18 22:35:00
3:55 PM,28.4,21.2,74,29.86,10.0,North,19.6,-,N/A,,Overcast,360,2013-12-18 22:55:00
4:15 PM,26.6,19.4,74,29.87,10.0,North,18.4,-,N/A,,Overcast,10,2013-12-18 23:15:00
4:35 PM,24.8,17.6,74,29.89,10.0,NNE,18.4,-,N/A,,Overcast,20,2013-12-18 23:35:00
4:55 PM,23.0,17.6,80,29.90,10.0,North,15.0,-,N/A,,Overcast,10,2013-12-18 23:55:00
5:55 PM,19.4,14.0,80,29.91,10.0,NNE,17.3,21.9,N/A,,Overcast,30,2013-12-19 00:55:00
6:15 PM,19.4,12.2,74,29.93,10.0,NE,15.0,-,N/A,,Overcast,50,2013-12-19 01:15:00
6:35 PM,15.8,10.4,79,29.95,10.0,ENE,11.5,-,N/A,,Overcast,60,2013-12-19 01:35:00
6:55 PM,15.8,10.4,79,29.95,10.0,NE,10.4,-,N/A,,Overcast,40,2013-12-19 01:55:00
7:15 PM,15.8,10.4,79,29.95,10.0,North,15.0,-,N/A,,Mostly Cloudy,10,2013-12-19 02:15:00
7:35 PM,14.0,8.6,79,29.97,10.0,North,13.8,-,N/A,,Partly Cloudy,10,2013-12-19 02:35:00
8:15 PM,12.2,6.8,79,29.98,10.0,NNE,12.7,-,N/A,,Clear,20,2013-12-19 03:15:00
8:35 PM,12.2,6.8,79,29.96,10.0,NNE,16.1,-,N/A,,Clear,20,2013-12-19 03:35:00
8:55 PM,12.2,6.8,79,29.99,10.0,North,15.0,-,N/A,,Scattered Clouds,10,2013-12-19 03:55:00
9:35 PM,10.4,3.2,73,30.00,10.0,North,15.0,-,N/A,,Mostly Cloudy,10,2013-12-19 04:35:00
9:55 PM,8.6,3.2,79,30.00,10.0,NNE,16.1,-,N/A,,Mostly Cloudy,30,2013-12-19 04:55:00
10:15 PM,8.6,1.4,73,30.01,10.0,NNE,16.1,-,N/A,,Partly Cloudy,30,2013-12-19 05:15:00
10:35 PM,6.8,1.4,79,30.01,10.0,NNE,13.8,-,N/A,,Mostly Cloudy,30,2013-12-19 05:35:00
10:55 PM,6.8,-0.4,72,30.02,10.0,NNE,15.0,-,N/A,,Mostly Cloudy,30,2013-12-19 05:55:00
11:15 PM,6.8,-0.4,72,30.02,10.0,NE,15.0,-,N/A,,Mostly Cloudy,40,2013-12-19 06:15:00
11:35 PM,5.0,-0.4,78,30.01,10.0,NE,17.3,-,N/A,,Partly Cloudy,40,2013-12-19 06:35:00
11:55 PM,5.0,-0.4,78,30.00,10.0,NE,15.0,-,N/A,,Clear,40,2013-12-19 06:55:00